KJ4YLO Weather Reports


time (UTC)temp
C
wind
direction
speed
KPH
gust
KPH
rain 1hr
cm
rain 24hr
cm
rain mn
cm
humidity
%
barometer
mb
20260505194926 26 316 0.0 0.0 0.00 0.00 0.00 34 1015.9
20260505194423 25 327 0.0 0.0 0.00 0.00 0.00 36 1015.9
20260505193923 25 335 1.6 3.2 0.00 0.00 0.00 33 1015.9
20260505193421 25 180 4.8 4.8 0.00 0.00 0.00 38 1016.3
20260505192918 25 183 4.8 4.8 0.00 0.00 0.00 36 1016.3
20260505192416 26 338 3.2 3.2 0.00 0.00 0.00 32 1016.3
20260505191914 25 293 1.6 3.2 0.00 0.00 0.00 34 1016.6
20260505191412 26 186 1.6 3.2 0.00 0.00 0.00 33 1016.6
20260505190909 26 329 1.6 3.2 0.00 0.00 0.00 35 1016.9
20260505190405 26 339 6.4 9.7 0.00 0.00 0.00 31 1016.6
20260505185859 25 205 6.4 8.0 0.00 0.00 0.00 35 1016.9
20260505185356 26 240 1.6 3.2 0.00 0.00 0.00 35 1016.9
20260505184853 25 342 1.6 1.6 0.00 0.00 0.00 33 1017.3
20260505184350 25 238 1.6 3.2 0.00 0.00 0.00 35 1016.6
20260505183847 26 225 4.8 4.8 0.00 0.00 0.00 35 1016.9
20260505183343 25 349 1.6 1.6 0.00 0.00 0.00 36 1016.9
20260505182840 25 291 1.6 1.6 0.00 0.00 0.00 36 1016.9
20260505182337 25 323 1.6 3.2 0.00 0.00 0.00 36 1017.3
20260505181834 24 15 1.6 3.2 0.00 0.00 0.00 35 1016.9
20260505181331 24 148 3.2 3.2 0.00 0.00 0.00 36 1017.3
20260505180827 23 188 8.0 9.7 0.00 0.00 0.00 33 1017.3
20260505180324 24 166 9.7 12.9 0.00 0.00 0.00 34 1017.3
20260505175821 24 350 0.0 1.6 0.00 0.00 0.00 35 1017.3
20260505175317 25 193 9.7 9.7 0.00 0.00 0.00 34 1017.3
20260505174814 25 147 3.2 3.2 0.00 0.00 0.00 36 1017.3
20260505174311 24 280 3.2 3.2 0.00 0.00 0.00 35 1017.6
20260505173807 24 153 12.9 16.1 0.00 0.00 0.00 35 1018.0
20260505173303 24 171 4.8 4.8 0.00 0.00 0.00 35 1017.6
20260505172800 24 256 3.2 3.2 0.00 0.00 0.00 36 1018.0
20260505172257 25 174 3.2 3.2 0.00 0.00 0.00 33 1018.0
20260505171752 24 171 6.4 8.0 0.00 0.00 0.00 34 1018.0
20260505171249 24 14 3.2 4.8 0.00 0.00 0.00 37 1018.3
20260505170746 24 258 3.2 3.2 0.00 0.00 0.00 35 1018.0
20260505170244 24 201 4.8 4.8 0.00 0.00 0.00 33 1018.0
20260505165738 25 194 3.2 3.2 0.00 0.00 0.00 33 1018.0
20260505165235 25 280 3.2 3.2 0.00 0.00 0.00 35 1018.0
20260505164730 23 214 3.2 3.2 0.00 0.00 0.00 37 1018.0
20260505164228 23 191 8.0 9.7 0.00 0.00 0.00 37 1018.0
20260505163726 23 251 1.6 3.2 0.00 0.00 0.00 37 1018.0
20260505163224 23 225 4.8 4.8 0.00 0.00 0.00 39 1017.6
20260505162721 23 167 11.3 14.5 0.00 0.00 0.00 39 1017.6
20260505162218 22 291 3.2 3.2 0.00 0.00 0.00 42 1018.0
20260505161715 22 181 4.8 4.8 0.00 0.00 0.00 42 1018.0
20260505161213 22 178 3.2 3.2 0.00 0.00 0.00 43 1018.0
20260505160710 22 235 4.8 4.8 0.00 0.00 0.00 45 1018.0
20260505160207 22 177 6.4 8.0 0.00 0.00 0.00 45 1018.0
20260505153146 21 354 1.6 1.6 0.00 0.00 0.00 46 1018.3
20260505152643 21 355 0.0 1.6 0.00 0.00 0.00 49 1018.3
20260505152139 20 179 3.2 3.2 0.00 0.00 0.00 49 1018.3
20260505151634 20 309 1.6 1.6 0.00 0.00 0.00 49 1018.3
20260505151132 20 325 1.6 1.6 0.00 0.00 0.00 51 1018.6
20260505150628 19 348 0.0 0.0 0.00 0.00 0.00 52 1018.3
20260505150125 19 162 3.2 3.2 0.00 0.00 0.00 52 1018.6
20260505140554 16 205 0.0 0.0 0.00 0.00 0.00 63 1018.3
20260505125007 12 346 0.0 0.0 0.00 0.00 0.00 81 1018.0
20260505124504 12 54 0.0 0.0 0.00 0.00 0.00 84 1018.0
20260505124000 12 327 0.0 0.0 0.00 0.00 0.00 86 1017.6
20260505123456 11 35 0.0 0.0 0.00 0.00 0.00 88 1017.6
20260505122953 11 354 0.0 0.0 0.00 0.00 0.00 94 1018.0
20260505122450 11 23 0.0 0.0 0.00 0.00 0.00 95 1017.6
20260505121947 10 354 0.0 0.0 0.00 0.00 0.00 95 1017.6
20260505121443 10 353 0.0 0.0 0.00 0.00 0.00 95 1017.6
20260505120939 9 353 0.0 0.0 0.00 0.00 0.00 95 1017.6
20260505120436 9 353 0.0 0.0 0.00 0.00 0.00 95 1017.3
20260505115935 8 354 0.0 0.0 0.00 0.00 0.00 95 1017.3
20260505115432 8 352 0.0 0.0 0.00 0.00 0.00 95 1017.3
20260505114930 8 352 0.0 0.0 0.00 0.00 0.00 95 1017.3
20260505114426 8 352 0.0 0.0 0.00 0.00 0.00 95 1017.3
20260505113922 8 351 0.0 0.0 0.00 0.00 0.00 96 1017.3
20260505113419 7 351 0.0 0.0 0.00 0.00 0.00 95 1017.6
20260505112915 7 352 0.0 0.0 0.00 0.00 0.00 95 1017.3
20260505112413 7 349 0.0 0.0 0.00 0.00 0.00 95 1017.3
20260505111909 7 349 0.0 0.0 0.00 0.00 0.00 95 1017.3
20260505111403 7 350 0.0 0.0 0.00 0.00 0.00 95 1017.3
20260505110900 7 349 0.0 0.0 0.00 0.00 0.00 95 1017.3
20260505110357 7 349 0.0 0.0 0.00 0.00 0.00 95 1017.3
20260505101827 7 332 0.0 0.0 0.00 0.00 0.00 94 1016.9
20260505101323 7 332 0.0 0.0 0.00 0.00 0.00 94 1016.6
20260505100818 7 332 0.0 0.0 0.00 0.00 0.00 94 1016.6
20260505100316 7 332 0.0 0.0 0.00 0.00 0.00 94 1016.9
20260505095811 7 332 0.0 0.0 0.00 0.00 0.00 93 1016.6
20260505095309 7 332 0.0 0.0 0.00 0.00 0.00 93 1016.6
20260505094804 7 332 0.0 0.0 0.00 0.00 0.00 93 1016.6
20260505094302 7 331 0.0 0.0 0.00 0.00 0.00 93 1016.6
20260505093757 7 331 0.0 0.0 0.00 0.00 0.00 93 1016.6
20260505093255 7 331 0.0 0.0 0.00 0.00 0.00 93 1016.6
20260505092751 7 331 0.0 0.0 0.00 0.00 0.00 93 1016.6
20260505092250 7 331 0.0 0.0 0.00 0.00 0.00 93 1016.6
20260505091747 7 331 0.0 0.0 0.00 0.00 0.00 93 1016.6
20260505091245 7 331 0.0 0.0 0.00 0.00 0.00 93 1016.6
20260505090743 8 331 0.0 0.0 0.00 0.00 0.00 93 1016.6
20260505090241 7 331 0.0 0.0 0.00 0.00 0.00 93 1016.6
20260505085738 8 332 0.0 0.0 0.00 0.00 0.00 93 1016.6
20260505085236 8 349 0.0 0.0 0.00 0.00 0.00 92 1016.3
20260505084733 8 349 0.0 0.0 0.00 0.00 0.00 92 1016.3
20260505084232 7 349 0.0 0.0 0.00 0.00 0.00 92 1016.3
20260505083728 8 349 0.0 0.0 0.00 0.00 0.00 92 1016.3
20260505083225 8 349 0.0 0.0 0.00 0.00 0.00 91 1016.3
20260505082721 8 349 0.0 0.0 0.00 0.00 0.00 91 1016.3
20260505082219 8 349 0.0 0.0 0.00 0.00 0.00 91 1016.3
20260505081714 8 349 0.0 0.0 0.00 0.00 0.00 91 1016.3
20260505081212 8 349 0.0 0.0 0.00 0.00 0.00 91 1016.3
20260505080709 8 349 0.0 0.0 0.00 0.00 0.00 90 1016.3
20260505080204 8 349 0.0 0.0 0.00 0.00 0.00 90 1016.3
20260505075700 8 346 0.0 0.0 0.00 0.00 0.00 90 1016.3
20260505075157 8 347 0.0 0.0 0.00 0.00 0.00 90 1016.3
20260505074655 8 347 0.0 0.0 0.00 0.00 0.00 90 1016.3
20260505074151 8 346 0.0 0.0 0.00 0.00 0.00 89 1016.3
20260505073649 8 346 0.0 0.0 0.00 0.00 0.00 89 1016.3
20260505073147 8 346 0.0 0.0 0.00 0.00 0.00 89 1016.3
20260505072643 8 346 0.0 0.0 0.00 0.00 0.00 88 1016.3
20260505072139 8 346 0.0 0.0 0.00 0.00 0.00 88 1015.9
20260505071635 8 346 0.0 0.0 0.00 0.00 0.00 88 1016.3
20260505071133 8 346 0.0 0.0 0.00 0.00 0.00 87 1016.3
20260505070630 8 346 0.0 0.0 0.00 0.00 0.00 87 1016.3
20260505070126 9 346 0.0 0.0 0.00 0.00 0.00 87 1016.3
20260505065622 9 346 0.0 0.0 0.00 0.00 0.00 86 1016.3
20260505065119 9 346 0.0 0.0 0.00 0.00 0.00 86 1016.3
20260505064616 9 346 0.0 0.0 0.00 0.00 0.00 86 1016.3
20260505064114 9 346 0.0 0.0 0.00 0.00 0.00 86 1016.3
20260505063611 9 346 0.0 0.0 0.00 0.00 0.00 86 1016.3
20260505063107 9 347 0.0 0.0 0.00 0.00 0.00 85 1016.3
20260505062604 9 346 0.0 0.0 0.00 0.00 0.00 85 1016.6
20260505062101 9 346 0.0 0.0 0.00 0.00 0.00 85 1016.9
20260505061558 10 346 0.0 0.0 0.00 0.00 0.00 85 1016.6
20260505061056 10 346 0.0 0.0 0.00 0.00 0.00 85 1016.6
20260505060553 10 346 0.0 0.0 0.00 0.00 0.00 84 1016.9
20260505060050 10 345 0.0 0.0 0.00 0.00 0.00 84 1016.6
20260505055545 10 346 0.0 0.0 0.00 0.00 0.00 84 1016.3
20260505055042 10 346 0.0 0.0 0.00 0.00 0.00 83 1016.6
20260505054539 10 346 0.0 0.0 0.00 0.00 0.00 83 1016.6
20260505054038 10 345 0.0 0.0 0.00 0.00 0.00 83 1016.6
20260505053534 10 344 0.0 0.0 0.00 0.00 0.00 83 1016.3
20260505053031 10 344 0.0 0.0 0.00 0.00 0.00 82 1016.9
20260505052528 10 344 0.0 0.0 0.00 0.00 0.00 82 1016.6
20260505052026 10 344 0.0 0.0 0.00 0.00 0.00 82 1016.6
20260505051522 10 344 0.0 0.0 0.00 0.00 0.00 82 1016.6
20260505051020 10 344 0.0 0.0 0.00 0.00 0.00 81 1016.6
20260505050518 10 343 0.0 0.0 0.00 0.00 0.00 81 1016.9
20260505041446 11 344 0.0 0.0 0.00 0.00 0.00 79 1016.6
20260505040943 11 328 0.0 0.0 0.00 0.00 0.00 79 1016.9
20260505040441 11 328 0.0 0.0 0.00 0.00 0.00 79 1016.9
20260505035937 11 328 0.0 0.0 0.00 0.00 0.00 78 1016.9
20260505035433 11 328 0.0 0.0 0.00 0.00 0.00 77 1016.6
20260505034931 11 328 0.0 0.0 0.00 0.00 0.00 77 1016.6
20260505034427 11 328 0.0 0.0 0.00 0.00 0.00 77 1016.9
20260505033924 11 328 0.0 0.0 0.00 0.00 0.00 76 1016.9
20260505033421 11 328 0.0 0.0 0.00 0.00 0.00 76 1016.9
20260505032919 11 328 0.0 0.0 0.00 0.00 0.00 75 1016.9
20260505032416 12 327 0.0 0.0 0.00 0.00 0.00 76 1016.9
20260505031912 12 327 0.0 0.0 0.00 0.00 0.00 76 1016.9
20260505031409 12 328 0.0 0.0 0.00 0.00 0.00 75 1016.9
20260505030906 12 328 0.0 0.0 0.00 0.00 0.00 75 1016.6
20260505030402 12 328 0.0 0.0 0.00 0.00 0.00 74 1016.9
20260505025857 12 328 0.0 0.0 0.00 0.00 0.00 74 1016.9
20260505025355 12 328 0.0 0.0 0.00 0.00 0.00 74 1016.9
20260505024854 12 328 0.0 0.0 0.00 0.00 0.00 74 1016.9
20260505024351 12 328 0.0 0.0 0.00 0.00 0.00 74 1016.9
20260505023847 13 328 0.0 0.0 0.00 0.00 0.00 73 1016.9
20260505023339 13 328 0.0 0.0 0.00 0.00 0.00 73 1016.9
20260505022836 13 328 0.0 0.0 0.00 0.00 0.00 72 1016.6
20260505022333 13 328 0.0 0.0 0.00 0.00 0.00 73 1016.9
20260505021831 13 328 0.0 0.0 0.00 0.00 0.00 72 1016.9
20260505021327 13 328 0.0 0.0 0.00 0.00 0.00 72 1016.6
20260505020823 13 328 0.0 0.0 0.00 0.00 0.00 71 1016.6
20260505020319 13 328 0.0 0.0 0.00 0.00 0.00 71 1016.6
20260505015816 14 327 0.0 0.0 0.00 0.00 0.00 71 1016.3
20260505015313 14 328 0.0 0.0 0.00 0.00 0.00 70 1016.6
20260505014810 14 328 0.0 0.0 0.00 0.00 0.00 69 1016.3
20260505014307 14 327 0.0 0.0 0.00 0.00 0.00 68 1016.3
20260505013803 14 328 0.0 0.0 0.00 0.00 0.00 68 1016.3
20260505013301 15 327 0.0 0.0 0.00 0.00 0.00 67 1016.3
20260505012759 15 328 0.0 0.0 0.00 0.00 0.00 66 1016.3
20260505012256 15 327 0.0 0.0 0.00 0.00 0.00 66 1016.3
20260505011752 15 327 0.0 0.0 0.00 0.00 0.00 65 1015.9
20260505011248 15 327 0.0 0.0 0.00 0.00 0.00 65 1016.3
20260505010744 15 327 0.0 0.0 0.00 0.00 0.00 65 1016.3
20260505010241 16 327 0.0 0.0 0.00 0.00 0.00 65 1015.9
20260505005737 16 327 0.0 0.0 0.00 0.00 0.00 65 1015.5
20260505005234 16 327 0.0 0.0 0.00 0.00 0.00 64 1015.5
20260505004731 16 327 0.0 0.0 0.00 0.00 0.00 63 1015.9
20260505004227 17 327 0.0 0.0 0.00 0.00 0.00 62 1015.9
20260505003725 17 327 0.0 0.0 0.00 0.00 0.00 61 1015.9
20260505003223 17 327 0.0 0.0 0.00 0.00 0.00 61 1015.9
20260505002718 17 327 0.0 0.0 0.00 0.00 0.00 60 1015.5
20260505002216 17 327 0.0 0.0 0.00 0.00 0.00 60 1015.9
20260505001714 18 327 0.0 0.0 0.00 0.00 0.00 59 1015.5
20260505001211 18 327 0.0 0.0 0.00 0.00 0.00 58 1015.9
20260505000708 18 327 0.0 0.0 0.00 0.00 0.00 57 1015.5
20260505000206 19 327 0.0 0.0 0.00 0.00 0.00 56 1015.9
20260504235702 20 327 0.0 0.0 0.00 0.00 0.00 55 1015.5
20260504235158 20 327 0.0 0.0 0.00 0.00 0.00 53 1015.5
20260504234656 20 327 0.0 0.0 0.00 0.00 0.00 49 1015.5
20260504234153 20 327 0.0 0.0 0.00 0.00 0.00 48 1015.9
20260504233648 21 327 0.0 0.0 0.00 0.00 0.00 48 1015.5
20260504233144 21 327 0.0 0.0 0.00 0.00 0.00 47 1015.5
20260504232642 21 327 0.0 0.0 0.00 0.00 0.00 45 1015.5
20260504232139 21 327 0.0 0.0 0.00 0.00 0.00 44 1015.5
20260504231636 21 327 0.0 0.0 0.00 0.00 0.00 43 1015.5
20260504231132 22 328 0.0 0.0 0.00 0.00 0.00 42 1015.5
20260504230628 22 328 0.0 0.0 0.00 0.00 0.00 41 1015.5
20260504230127 22 329 0.0 0.0 0.00 0.00 0.00 39 1015.5
20260504225625 22 329 0.0 0.0 0.00 0.00 0.00 38 1015.1
20260504225121 22 331 0.0 0.0 0.00 0.00 0.00 40 1015.5
20260504224618 22 296 1.6 3.2 0.00 0.00 0.00 36 1015.1
20260504224115 22 298 1.6 3.2 0.00 0.00 0.00 39 1015.1
20260504223612 22 315 0.0 0.0 0.00 0.00 0.00 36 1015.5
20260504223107 23 317 0.0 0.0 0.00 0.00 0.00 40 1015.5
20260504222605 23 330 0.0 0.0 0.00 0.00 0.00 38 1015.9
20260504222102 23 294 1.6 1.6 0.00 0.00 0.00 37 1015.5
20260504221559 23 306 0.0 0.0 0.00 0.00 0.00 39 1015.5
20260504221055 23 35 1.6 1.6 0.00 0.00 0.00 39 1015.5
20260504220552 23 247 0.0 1.6 0.00 0.00 0.00 37 1015.1
20260504220049 24 84 1.6 1.6 0.00 0.00 0.00 33 1015.5
20260504215546 25 330 0.0 1.6 0.00 0.00 0.00 35 1015.5
20260504215043 25 329 0.0 0.0 0.00 0.00 0.00 35 1015.5
20260504214539 24 36 3.2 3.2 0.00 0.00 0.00 35 1015.5
20260504214036 25 317 1.6 1.6 0.00 0.00 0.00 35 1015.5
20260504213532 24 32 0.0 1.6 0.00 0.00 0.00 35 1015.5
20260504213029 24 353 1.6 1.6 0.00 0.00 0.00 36 1015.5
20260504212525 25 291 1.6 3.2 0.00 0.00 0.00 36 1015.5
20260504212023 24 319 1.6 1.6 0.00 0.00 0.00 35 1015.5
20260504211520 25 317 0.0 1.6 0.00 0.00 0.00 34 1015.5
20260504211017 25 326 0.0 1.6 0.00 0.00 0.00 36 1015.5
20260504210514 24 305 1.6 3.2 0.00 0.00 0.00 36 1015.5
20260504210010 24 212 3.2 3.2 0.00 0.00 0.00 34 1015.5
20260504205508 25 276 3.2 3.2 0.00 0.00 0.00 37 1015.5
20260504205006 24 196 4.8 4.8 0.00 0.00 0.00 35 1015.5
20260504204504 24 209 6.4 8.0 0.00 0.00 0.00 34 1015.5
20260504204003 25 169 3.2 3.2 0.00 0.00 0.00 34 1015.5
20260504203500 24 333 3.2 3.2 0.00 0.00 0.00 33 1015.5
20260504202956 24 194 4.8 4.8 0.00 0.00 0.00 34 1015.5
20260504202452 24 329 3.2 3.2 0.00 0.00 0.00 34 1015.9
20260504201950 24 183 3.2 3.2 0.00 0.00 0.00 35 1015.9
20260504201447 24 257 3.2 3.2 0.00 0.00 0.00 34 1015.5
20260504200944 24 207 4.8 4.8 0.00 0.00 0.00 32 1015.9
20260504200441 24 203 4.8 8.0 0.00 0.00 0.00 33 1015.9
20260504195937 24 182 4.8 4.8 0.00 0.00 0.00 33 1015.5
20260504195433 25 190 4.8 4.8 0.00 0.00 0.00 30 1015.9